INTELSAT 10 (IS-10) 1 26766U 01019A 25312.30277477 -.00000116 00000+0 00000+0 0 9995 2 26766 8.5459 61.4964 0006781 207.0272 175.2140 0.99074630 43399 INTELSAT 902 (IS-902) 1 26900U 01039A 25302.31837023 -.00000270 00000+0 00000+0 0 9997 2 26900 5.5323 74.5916 0004367 140.6922 247.1466 1.00272641 88383 INTELSAT 904 (IS-904) 1 27380U 02007A 25312.73914137 -.00000224 00000+0 00000+0 0 9994 2 27380 6.3681 71.8209 0001582 129.9101 81.0720 1.00271540 49553 DIRECTV 5 (TEMPO 1) 1 27426U 02023A 25312.50947340 -.00000055 00000+0 00000+0 0 9992 2 27426 4.3123 78.0570 0003350 149.2842 253.9113 1.00271345 85914 INTELSAT 905 (IS-905) 1 27438U 02027A 25307.93785549 .00000109 00000+0 00000+0 0 9990 2 27438 6.1844 72.5026 0002825 157.8845 13.5295 1.00273936 49106 GALAXY 3C (G-3C) 1 27445U 02030A 25312.79790169 -.00000151 00000+0 00000+0 0 9994 2 27445 3.1769 80.8493 0001439 90.7469 69.0524 1.00270644 44282 INTELSAT 906 (IS-906) 1 27513U 02041A 25312.85739484 .00000014 00000+0 00000+0 0 9999 2 27513 5.2412 75.6318 0005374 179.7192 165.7526 1.00271490 84816 GALAXY 13 (HORIZONS-1) 1 27954U 03044A 25312.71565456 .00000134 00000+0 00000+0 0 9996 2 27954 0.8454 86.8956 0002105 130.0057 298.9129 1.00270160 44360 INTELSAT 10-02 1 28358U 04022A 25312.74520807 -.00000010 00000+0 00000+0 0 9990 2 28358 0.0342 85.4808 0001127 172.4407 57.5758 1.00271222 78342 XM-3 (RHYTHM) 1 28626U 05008A 25310.27405829 -.00000126 00000+0 00000+0 0 9993 2 28626 0.0862 77.5884 0004134 233.0372 120.0276 0.99297088 40388 DIRECTV 8 1 28659U 05019A 25312.65039419 .00000002 00000+0 00000+0 0 9995 2 28659 0.0149 274.6641 0003323 327.5459 281.0022 1.00272266 74868 GALAXY 28 (G-28) 1 28702U 05022A 25312.79911502 -.00000186 00000+0 00000+0 0 9999 2 28702 2.7295 81.6723 0002281 184.5784 340.9831 1.00270951 49762 GALAXY 16 (G-16) 1 29236U 06023A 25312.55928132 -.00000125 00000+0 00000+0 0 9998 2 29236 0.0360 134.7588 0002855 86.4580 289.1345 1.00271619 70769 DIRECTV 9S 1 29494U 06043A 25312.58262049 -.00000111 00000+0 00000+0 0 9992 2 29494 1.8493 83.5763 0003284 150.3267 282.6685 1.00270599 49179 GALAXY 17 (G-17) 1 31307U 07016B 25312.79989502 -.00000205 00000+0 00000+0 0 9996 2 31307 2.4122 82.6784 0006413 155.3449 13.1991 1.00270934 67594 DIRECTV 10 1 31862U 07032A 25312.58227382 -.00000102 00000+0 00000+0 0 9994 2 31862 0.0042 9.4413 0000729 214.8436 290.5868 1.00273197 43381 INTELSAT 11 (IS-11) 1 32253U 07044B 25312.81965514 -.00000089 00000+0 00000+0 0 9998 2 32253 2.9893 81.3607 0009296 149.3177 127.4879 0.99051418 66266 HORIZONS-2 1 32388U 07063B 25312.80214838 -.00000252 00000+0 00000+0 0 9995 2 32388 2.0313 83.3355 0004583 168.3524 11.5653 1.00271445 65603 DIRECTV 11 1 32729U 08013A 25312.58305382 -.00000123 00000+0 00000+0 0 9997 2 32729 0.0034 5.5795 0000630 157.9995 355.1642 1.00264272 43385 GALAXY 18 (G-18) 1 32951U 08024A 25312.72102793 .00000026 00000+0 00000+0 0 9994 2 32951 0.0138 283.0843 0003228 306.7352 314.9169 1.00270373 43646 INTELSAT 25 (IS-25) 1 33153U 08034A 25312.81046843 -.00000222 00000+0 00000+0 0 9992 2 33153 2.1378 83.0285 0005126 161.5717 63.9441 1.00271317 63486 GALAXY 19 (G-19) 1 33376U 08045A 25312.58348715 -.00000138 00000+0 00000+0 0 9994 2 33376 0.0101 295.0036 0003103 301.8542 284.2367 1.00270743 62690 FM-5 1 35493U 09034A 25312.79954837 -.00000199 00000+0 00000+0 0 9993 2 35493 0.0176 273.8407 0000641 263.2029 72.9042 1.00269576 44431 INTELSAT 14 (IS-14) 1 36097U 09064A 25312.80778175 -.00000273 00000+0 00000+0 0 9991 2 36097 0.0114 298.0391 0002647 288.6295 67.4039 1.00269922 58399 INTELSAT 15 (IS-15) 1 36106U 09067A 25312.82226713 -.00000184 00000+0 00000+0 0 9994 2 36106 0.0123 329.1443 0002546 265.5123 194.7846 1.00270728 39010 DIRECTV 12 1 36131U 09075A 25312.65368756 -.00000102 00000+0 00000+0 0 9996 2 36131 0.0297 85.3000 0000723 177.5566 277.8660 1.00272142 44349 INTELSAT 16 (IS-16) 1 36397U 10006A 25312.51623345 -.00000243 00000+0 00000+0 0 9995 2 36397 0.0130 294.2856 0002441 296.4041 286.9292 1.00270922 57448 XM-5 1 37185U 10053A 25312.57993381 -.00000022 00000+0 00000+0 0 9994 2 37185 0.0595 270.8729 0000819 261.4592 329.2945 1.00274502 55271 INTELSAT 17 (IS-17) 1 37238U 10065B 25312.83848051 -.00000001 00000+0 00000+0 0 9995 2 37238 0.0054 240.7095 0002355 349.2852 186.1513 1.00270971 51030 INTELSAT 28 (IS-28) 1 37392U 11016A 25312.81046843 -.00000224 00000+0 00000+0 0 9997 2 37392 1.2342 85.4410 0004296 153.2399 69.6525 1.00270568 51078 INTELSAT 18 (IS-18) 1 37834U 11056A 25312.78108825 .00000054 00000+0 00000+0 0 9997 2 37834 0.0121 277.5169 0001987 319.8193 272.0801 1.00271679 51602 INTELSAT 22 (IS-22) 1 38098U 12011A 25312.83906552 -.00000058 00000+0 00000+0 0 9996 2 38098 0.0034 130.1975 0001760 103.4597 188.8015 1.00271083 4979 INTELSAT 19 (IS-19) 1 38356U 12030A 25312.77831492 -.00000055 00000+0 00000+0 0 9994 2 38356 0.0114 298.9311 0003376 292.1522 263.3453 1.00270856 48241 INTELSAT 20 (IS-20) 1 38740U 12043A 25312.85719502 -.00000024 00000+0 00000+0 0 9997 2 38740 0.0062 248.8691 0002872 289.7514 246.7848 1.00271486 48533 INTELSAT 21 (IS-21) 1 38749U 12045A 25312.80526839 -.00000284 00000+0 00000+0 0 9990 2 38749 0.0604 84.9646 0002077 142.7898 52.4021 1.00269494 48310 INTELSAT 23 (IS-23) 1 38867U 12057A 25312.37808852 -.00000282 00000+0 00000+0 0 9992 2 38867 0.0153 267.7891 0002183 339.2784 243.9055 1.00270769 47745 FM-6 1 39360U 13058A 25312.43695965 -.00000015 00000+0 00000+0 0 9993 2 39360 0.0336 123.4426 0002837 56.0178 269.5863 1.00271577 43853 INTELSAT 30 (IS-30) 1 40271U 14062A 25310.44340892 -.00000142 00000+0 00000+0 0 9998 2 40271 0.0173 358.0535 0001142 65.8661 46.5878 1.00270077 4552 DIRECTV 14 1 40333U 14078B 25312.65420756 -.00000124 00000+0 00000+0 0 9997 2 40333 0.0156 273.8035 0000227 297.9814 332.6117 1.00270135 39831 DIRECTV 15 1 40663U 15026A 25312.65368756 -.00000101 00000+0 00000+0 0 9993 2 40663 0.0576 90.1686 0000224 108.6218 341.7870 1.00268844 38254 SKY MEXICO-1 1 40664U 15026B 25312.79157822 -.00000234 00000+0 00000+0 0 9996 2 40664 0.0150 321.6961 0002492 278.7094 14.0412 1.00270715 38242 INTELSAT 34 (IS-34) 1 40874U 15039A 25312.80570174 -.00000285 00000+0 00000+0 0 9990 2 40874 0.0149 282.4061 0000360 278.2497 82.1619 1.00271333 37412 INTELSAT 31 (IS-31) 1 41581U 16035A 25312.58383382 -.00000150 00000+0 00000+0 0 9992 2 41581 0.0132 253.2746 0002119 343.3110 286.5706 1.00277527 34477 INTELSAT 36 (IS-36) 1 41747U 16053A 25312.83828045 -.00000024 00000+0 00000+0 0 9994 2 41747 0.0130 327.4566 0001678 8.9664 82.1350 1.00271393 33738 INTELSAT 32E (IS-32E) 1 41945U 17007B 25312.80821507 -.00000268 00000+0 00000+0 0 9997 2 41945 0.0082 340.5572 0000326 213.6867 101.8024 1.00270169 32013 INTELSAT 35E (IS-35E) 1 42818U 17041A 25312.80986176 -.00000237 00000+0 00000+0 0 9995 2 42818 0.0149 279.3505 0002599 315.2461 70.7318 1.00270920 30603 INTELSAT 37E (IS-37E) 1 42950U 17059A 25312.81315509 -.00000140 00000+0 00000+0 0 9991 2 42950 0.0131 294.6647 0003255 297.4461 90.8987 1.00271061 29856 AZERSPACE 2 (IS-38) 1 43632U 18074A 25312.61165397 .00000138 00000+0 00000+0 0 9999 2 43632 0.0183 278.7933 0001597 313.1653 81.4154 1.00270391 26234 HORIZONS-3E 1 43633U 18074B 25311.78003277 -.00000026 00000+0 00000+0 0 9992 2 43633 0.0106 214.2226 0001378 71.9957 210.8353 1.00272138 26121 AT&T T-16 1 44333U 19034A 25312.65394756 -.00000114 00000+0 00000+0 0 9997 2 44333 0.0099 36.9125 0000599 146.5425 359.2175 1.00269504 23423 INTELSAT 39 (IS-39) 1 44476U 19049B 25312.81564453 .00000034 00000+0 00000+0 0 9992 2 44476 0.0147 277.8712 0000033 237.7236 248.2499 1.00271401 22917 GALAXY 30 (G-30) 1 46114U 20056C 25312.64926752 .00000038 00000+0 00000+0 0 9992 2 46114 0.0162 280.5489 0002421 308.3725 287.9166 1.00270958 19089 GALAXY 33 (G-33) 1 54026U 22128A 25312.64770751 .00000080 00000+0 00000+0 0 9998 2 54026 0.0165 20.9833 0002030 203.6709 283.6148 1.00270753 11535 GALAXY 34 (G-34) 1 54027U 22128B 25312.64848751 .00000060 00000+0 00000+0 0 9993 2 54027 0.0141 311.2253 0001463 277.9379 283.3986 1.00273082 11702 GALAXY 31 (G-31) 1 54243U 22153A 25312.65004752 .00000015 00000+0 00000+0 0 9997 2 54243 0.0249 143.4785 0001946 102.3287 275.3133 1.00270654 4924 GALAXY 32 (G-32) 1 54244U 22153B 25311.44307090 -.00000169 00000+0 00000+0 0 9996 2 54244 0.0111 325.6751 0001894 323.6055 186.1410 1.00270911 10923 GALAXY 35 (G-35) 1 54741U 22170A 25312.79816169 -.00000162 00000+0 00000+0 0 9991 2 54741 0.0124 236.6344 0002535 2.2092 3.6523 1.00271126 10682 GALAXY 36 (G-36) 1 54742U 22170B 25312.79911502 -.00000184 00000+0 00000+0 0 9993 2 54742 0.0132 246.8969 0000879 319.1372 40.9009 1.00270744 10563 GALAXY 37 (G-37) 1 57493U 23112A 25312.64883419 .00000049 00000+0 00000+0 0 9994 2 57493 0.0123 290.2240 0002387 306.5791 277.8802 1.00270461 8335